Time,TemperatureF,DewpointF,PressureIn,WindDirection,WindDirectionDegrees,WindSpeedMPH,WindSpeedGustMPH,Humidity,HourlyPrecipIn,Conditions,Clouds,dailyrainin,SolarRadiationWatts/m^2,SoftwareType,DateUTC
2013-06-15 00:00:00,67.9,63.9,29.76,SE,135,4.0,6.0,87,0.00,,SKC,0.00,0.00,VWS V14.00,2013-06-15 05:00:00,
2013-06-15 00:05:00,68.0,63.7,29.75,SE,135,6.0,11.0,86,0.00,,SKC,0.00,0.00,VWS V14.00,2013-06-15 05:05:00,
2013-06-15 00:10:00,68.1,63.8,29.75,SE,135,5.0,9.0,86,0.00,,SKC,0.00,0.00,VWS V14.00,2013-06-15 05:10:00,
2013-06-15 00:15:00,68.2,63.5,29.75,SE,135,5.0,10.0,85,0.00,,SKC,0.00,0.00,VWS V14.00,2013-06-15 05:15:00,
2013-06-15 00:20:00,68.2,63.5,29.75,ESE,112,5.0,10.0,85,0.00,,SKC,0.00,0.00,VWS V14.00,2013-06-15 05:20:00,
2013-06-15 00:25:00,68.2,63.5,29.75,SE,135,6.0,11.0,85,0.00,,SKC,0.00,0.00,VWS V14.00,2013-06-15 05:25:00,
2013-06-15 00:30:00,68.2,63.2,29.75,SE,135,7.0,11.0,84,0.00,,SKC,0.00,0.00,VWS V14.00,2013-06-15 05:30:00,
2013-06-15 00:35:00,68.3,63.3,29.75,SE,135,7.0,12.0,84,0.00,,SKC,0.00,0.00,VWS V14.00,2013-06-15 05:35:00,
2013-06-15 00:40:00,68.4,63.4,29.75,SE,135,8.0,14.0,84,0.00,,SKC,0.00,0.00,VWS V14.00,2013-06-15 05:40:00,
2013-06-15 00:45:00,68.5,63.1,29.75,SE,135,7.0,12.0,83,0.00,,SKC,0.00,0.00,VWS V14.00,2013-06-15 05:45:00,
2013-06-15 00:50:00,68.6,63.2,29.75,SE,135,7.0,12.0,83,0.00,,SKC,0.00,0.00,VWS V14.00,2013-06-15 05:50:00,
2013-06-15 00:55:00,68.7,63.3,29.75,SE,135,7.0,14.0,83,0.00,,SKC,0.00,0.00,VWS V14.00,2013-06-15 05:55:00,
2013-06-15 01:00:00,68.7,63.3,29.76,SE,135,9.0,15.0,83,0.00,,SKC,0.00,0.00,VWS V14.00,2013-06-15 06:00:00,
2013-06-15 01:05:00,68.7,63.3,29.76,SE,135,6.0,10.0,83,0.00,,SKC,0.00,0.00,VWS V14.00,2013-06-15 06:05:00,
2013-06-15 01:10:00,68.6,63.2,29.76,SE,135,7.0,13.0,83,0.00,,SKC,0.00,0.00,VWS V14.00,2013-06-15 06:10:00,
2013-06-15 01:15:00,68.6,63.6,29.76,SE,135,7.0,13.0,84,0.00,,SKC,0.00,0.00,VWS V14.00,2013-06-15 06:15:00,
2013-06-15 01:20:00,68.5,63.5,29.76,SE,135,6.0,13.0,84,0.00,,SKC,0.00,0.00,VWS V14.00,2013-06-15 06:20:00,
2013-06-15 01:25:00,68.5,63.5,29.76,SE,135,8.0,14.0,84,0.00,,SKC,0.00,0.00,VWS V14.00,2013-06-15 06:25:00,
2013-06-15 01:30:00,68.4,63.4,29.76,SE,135,7.0,13.0,84,0.00,,SKC,0.00,0.00,VWS V14.00,2013-06-15 06:30:00,
2013-06-15 01:35:00,68.3,63.3,29.76,SE,135,7.0,15.0,84,0.00,,SKC,0.00,0.00,VWS V14.00,2013-06-15 06:35:00,
2013-06-15 01:40:00,68.2,63.2,29.76,SE,135,6.0,11.0,84,0.00,,SKC,0.00,0.00,VWS V14.00,2013-06-15 06:40:00,
2013-06-15 01:45:00,68.1,63.4,29.76,SE,135,5.0,10.0,85,0.00,,SKC,0.00,0.00,VWS V14.00,2013-06-15 06:45:00,
2013-06-15 01:50:00,68.0,63.3,29.76,SSE,158,4.0,9.0,85,0.00,,SKC,0.00,0.00,VWS V14.00,2013-06-15 06:50:00,
2013-06-15 01:55:00,67.9,63.6,29.75,SE,135,4.0,7.0,86,0.00,,SKC,0.00,0.00,VWS V14.00,2013-06-15 06:55:00,
2013-06-15 02:00:00,67.7,63.4,29.75,SE,135,4.0,7.0,86,0.00,,SKC,0.00,0.00,VWS V14.00,2013-06-15 07:00:00,
2013-06-15 02:05:00,67.6,63.3,29.76,SE,135,4.0,7.0,86,0.00,,SKC,0.00,0.00,VWS V14.00,2013-06-15 07:05:00,
2013-06-15 02:10:00,67.4,63.4,29.76,SSE,158,4.0,6.0,87,0.00,,SKC,0.00,0.00,VWS V14.00,2013-06-15 07:10:00,
2013-06-15 02:15:00,67.3,63.3,29.75,SE,135,3.0,6.0,87,0.00,,SKC,0.00,0.00,VWS V14.00,2013-06-15 07:15:00,
2013-06-15 02:20:00,67.1,63.1,29.75,SE,135,4.0,7.0,87,0.00,,SKC,0.00,0.00,VWS V14.00,2013-06-15 07:20:00,
2013-06-15 02:25:00,67.0,63.3,29.75,SSE,158,4.0,8.0,88,0.00,,SKC,0.00,0.00,VWS V14.00,2013-06-15 07:25:00,
2013-06-15 02:30:00,66.9,63.2,29.75,SE,135,5.0,9.0,88,0.00,,SKC,0.00,0.00,VWS V14.00,2013-06-15 07:30:00,
2013-06-15 02:35:00,66.8,63.1,29.75,SE,135,5.0,10.0,88,0.00,,SKC,0.00,0.00,VWS V14.00,2013-06-15 07:35:00,
2013-06-15 02:40:00,66.7,63.0,29.75,SSE,158,3.0,8.0,88,0.00,,SKC,0.00,0.00,VWS V14.00,2013-06-15 07:40:00,
2013-06-15 02:45:00,66.7,63.4,29.75,SE,135,4.0,10.0,89,0.00,,SKC,0.00,0.00,VWS V14.00,2013-06-15 07:45:00,
2013-06-15 02:50:00,66.6,63.3,29.75,SE,135,5.0,8.0,89,0.00,,SKC,0.00,0.00,VWS V14.00,2013-06-15 07:50:00,
2013-06-15 02:55:00,66.5,63.2,29.75,SE,135,4.0,7.0,89,0.00,,SKC,0.00,0.00,VWS V14.00,2013-06-15 07:55:00,
2013-06-15 03:00:00,66.4,63.1,29.75,SE,135,5.0,7.0,89,0.00,,SKC,0.00,0.00,VWS V14.00,2013-06-15 08:00:00,
2013-06-15 03:05:00,66.3,63.0,29.75,SE,135,4.0,11.0,89,0.00,,SKC,0.00,0.00,VWS V14.00,2013-06-15 08:05:00,
2013-06-15 03:10:00,66.2,63.2,29.75,SE,135,3.0,7.0,90,0.00,,SKC,0.00,0.00,VWS V14.00,2013-06-15 08:10:00,
2013-06-15 03:20:00,66.1,63.1,29.75,SE,140,2.0,3.0,90,0.00,,SKC,0.00,0.00,VWS V14.00,2013-06-15 08:20:00,
2013-06-15 03:22:00,66.1,63.1,29.75,ESE,119,3.0,5.0,90,0.00,,SKC,0.00,0.00,VWS V14.00,2013-06-15 08:22:00,
2013-06-15 03:27:00,66.0,63.0,29.75,SSE,162,2.0,5.0,90,0.00,,SKC,0.00,0.00,VWS V14.00,2013-06-15 08:27:00,
2013-06-15 03:32:00,65.9,62.9,29.75,SE,135,6.0,7.0,90,0.00,,SKC,0.00,0.00,VWS V14.00,2013-06-15 08:32:00,
2013-06-15 03:37:00,65.8,63.1,29.75,South,182,1.0,6.0,91,0.00,,SKC,0.00,0.00,VWS V14.00,2013-06-15 08:37:00,
2013-06-15 03:42:00,65.7,63.0,29.75,South,178,4.0,5.0,91,0.00,,SKC,0.00,0.00,VWS V14.00,2013-06-15 08:42:00,
2013-06-15 03:47:00,65.7,63.0,29.75,South,177,0.0,4.0,91,0.00,,SKC,0.00,0.00,VWS V14.00,2013-06-15 08:47:00,
2013-06-15 03:52:00,65.6,62.9,29.75,SSE,151,3.0,5.0,91,0.00,,SKC,0.00,0.00,VWS V14.00,2013-06-15 08:52:00,
2013-06-15 03:57:00,65.5,62.8,29.75,South,172,2.0,4.0,91,0.00,,SKC,0.00,0.00,VWS V14.00,2013-06-15 08:57:00,
2013-06-15 04:02:00,65.4,62.7,29.75,South,169,0.0,4.0,91,0.00,,SKC,0.00,0.00,VWS V14.00,2013-06-15 09:02:00,
2013-06-15 04:07:00,65.3,62.6,29.75,South,178,1.0,4.0,91,0.00,,SKC,0.00,0.00,VWS V14.00,2013-06-15 09:07:00,
2013-06-15 04:12:00,65.3,62.9,29.75,SSE,148,5.0,5.0,92,0.00,,SKC,0.00,0.00,VWS V14.00,2013-06-15 09:12:00,
2013-06-15 04:17:00,65.1,62.7,29.75,SSE,155,3.0,6.0,92,0.00,,SKC,0.00,0.00,VWS V14.00,2013-06-15 09:17:00,
2013-06-15 04:22:00,65.0,62.6,29.75,SSE,153,3.0,6.0,92,0.00,,SKC,0.00,0.00,VWS V14.00,2013-06-15 09:22:00,
2013-06-15 04:27:00,65.0,62.9,29.74,SSE,148,1.0,6.0,93,0.00,,SKC,0.00,0.00,VWS V14.00,2013-06-15 09:27:00,
2013-06-15 04:32:00,64.9,62.8,29.75,SE,142,2.0,5.0,93,0.00,,SKC,0.00,0.00,VWS V14.00,2013-06-15 09:32:00,
2013-06-15 04:37:00,64.8,62.7,29.74,SE,143,1.0,6.0,93,0.00,,SKC,0.00,0.00,VWS V14.00,2013-06-15 09:37:00,
2013-06-15 04:42:00,64.7,62.6,29.74,SE,138,2.0,4.0,93,0.00,,SKC,0.00,0.00,VWS V14.00,2013-06-15 09:42:00,
2013-06-15 04:47:00,64.7,62.6,29.75,SE,146,1.0,3.0,93,0.00,,SKC,0.00,0.00,VWS V14.00,2013-06-15 09:47:00,
2013-06-15 04:52:00,64.7,62.6,29.75,SSE,150,3.0,4.0,93,0.00,,SKC,0.00,0.00,VWS V14.00,2013-06-15 09:52:00,
2013-06-15 04:57:00,64.6,62.5,29.75,SSE,150,0.0,3.0,93,0.00,,SKC,0.00,0.00,VWS V14.00,2013-06-15 09:57:00,
2013-06-15 05:02:00,64.5,62.4,29.75,SSE,149,0.0,4.0,93,0.00,,SKC,0.00,0.00,VWS V14.00,2013-06-15 10:02:00,
2013-06-15 05:07:00,64.4,62.3,29.75,SSE,149,0.0,1.0,93,0.00,,SKC,0.00,0.00,VWS V14.00,2013-06-15 10:07:00,
2013-06-15 05:12:00,64.3,62.2,29.74,SE,136,4.0,5.0,93,0.00,,SKC,0.00,0.00,VWS V14.00,2013-06-15 10:12:00,
2013-06-15 05:17:00,64.2,62.4,29.73,SE,127,3.0,6.0,94,0.00,,SKC,0.00,0.00,VWS V14.00,2013-06-15 10:17:00,
2013-06-15 05:22:00,64.1,62.3,29.73,SE,130,6.0,7.0,94,0.00,,SKC,0.00,0.00,VWS V14.00,2013-06-15 10:22:00,
2013-06-15 05:28:00,64.1,62.6,29.74,SE,136,0.0,5.0,95,0.00,,SKC,0.00,0.00,VWS V14.00,2013-06-15 10:28:00,
2013-06-15 05:33:00,64.1,62.6,29.74,SE,138,0.0,3.0,95,0.00,,SKC,0.00,0.00,VWS V14.00,2013-06-15 10:33:00,
2013-06-15 05:38:00,64.0,62.5,29.75,SSE,163,0.0,4.0,95,0.00,,SKC,0.00,5.00,VWS V14.00,2013-06-15 10:38:00,
2013-06-15 05:43:00,64.0,62.2,29.75,SSE,163,0.0,2.0,94,0.00,,SKC,0.00,7.00,VWS V14.00,2013-06-15 10:43:00,
2013-06-15 05:48:00,63.9,62.1,29.75,SSE,163,0.0,1.0,94,0.00,,SKC,0.00,9.00,VWS V14.00,2013-06-15 10:48:00,
2013-06-15 05:53:00,63.8,62.0,29.75,SSE,163,0.0,0.0,94,0.00,,SKC,0.00,16.00,VWS V14.00,2013-06-15 10:53:00,
2013-06-15 05:58:00,63.8,62.0,29.76,SSE,163,0.0,0.0,94,0.00,,SKC,0.00,21.00,VWS V14.00,2013-06-15 10:58:00,
2013-06-15 06:03:00,63.7,62.2,29.76,SSE,163,0.0,0.0,95,0.00,,SKC,0.00,28.00,VWS V14.00,2013-06-15 11:03:00,
2013-06-15 06:08:00,63.7,62.2,29.76,SSE,163,0.0,1.0,95,0.00,,SKC,0.00,35.00,VWS V14.00,2013-06-15 11:08:00,
2013-06-15 06:13:00,63.7,62.2,29.76,SSE,163,0.0,0.0,95,0.00,,SKC,0.00,39.00,VWS V14.00,2013-06-15 11:13:00,
2013-06-15 06:18:00,63.7,62.2,29.76,SSE,160,0.0,0.0,95,0.00,,SKC,0.00,40.00,VWS V14.00,2013-06-15 11:18:00,
2013-06-15 06:23:00,63.7,62.2,29.76,SSE,160,0.0,0.0,95,0.00,,SKC,0.00,47.00,VWS V14.00,2013-06-15 11:23:00,
2013-06-15 06:28:00,63.6,62.2,29.76,SSE,160,0.0,0.0,95,0.00,,SKC,0.00,51.00,VWS V14.00,2013-06-15 11:28:00,
2013-06-15 06:33:00,63.7,62.2,29.76,East,101,0.0,1.0,95,0.00,,SKC,0.00,53.00,VWS V14.00,2013-06-15 11:33:00,
2013-06-15 06:38:00,63.7,62.5,29.77,NE,41,0.0,0.0,96,0.00,,SKC,0.00,58.00,VWS V14.00,2013-06-15 11:38:00,
2013-06-15 06:43:00,63.9,62.7,29.77,NE,41,0.0,1.0,96,0.00,,SKC,0.00,69.00,VWS V14.00,2013-06-15 11:43:00,
2013-06-15 06:48:00,64.0,62.8,29.77,NE,41,0.0,1.0,96,0.00,,SKC,0.00,79.00,VWS V14.00,2013-06-15 11:48:00,
2013-06-15 06:53:00,64.3,63.1,29.78,NE,41,0.0,1.0,96,0.00,,SKC,0.00,104.00,VWS V14.00,2013-06-15 11:53:00,
2013-06-15 06:58:00,64.6,63.4,29.78,NE,41,0.0,2.0,96,0.00,,SKC,0.00,118.00,VWS V14.00,2013-06-15 11:58:00,
2013-06-15 07:03:00,65.0,64.1,29.78,SSW,193,2.0,4.0,97,0.00,,SKC,0.00,113.00,VWS V14.00,2013-06-15 12:03:00,
2013-06-15 07:08:00,65.3,64.1,29.78,WSW,241,1.0,5.0,96,0.00,,SKC,0.00,113.00,VWS V14.00,2013-06-15 12:08:00,
2013-06-15 07:13:00,65.4,64.2,29.77,WSW,242,0.0,4.0,96,0.00,,SKC,0.00,114.00,VWS V14.00,2013-06-15 12:13:00,
2013-06-15 07:18:00,65.6,64.4,29.78,WSW,242,0.0,3.0,96,0.00,,SKC,0.00,120.00,VWS V14.00,2013-06-15 12:18:00,
2013-06-15 07:23:00,65.8,64.6,29.78,WSW,242,2.0,3.0,96,0.00,,SKC,0.00,114.00,VWS V14.00,2013-06-15 12:23:00,
2013-06-15 07:28:00,66.0,64.5,29.78,WSW,254,2.0,3.0,95,0.00,,SKC,0.00,125.00,VWS V14.00,2013-06-15 12:28:00,
2013-06-15 07:33:00,66.1,64.6,29.77,West,271,1.0,2.0,95,0.00,,SKC,0.00,130.00,VWS V14.00,2013-06-15 12:33:00,
2013-06-15 07:38:00,66.3,64.8,29.77,West,271,0.0,2.0,95,0.00,,SKC,0.00,144.00,VWS V14.00,2013-06-15 12:38:00,
2013-06-15 07:43:00,66.5,65.0,29.77,West,277,1.0,3.0,95,0.00,,SKC,0.00,183.00,VWS V14.00,2013-06-15 12:43:00,
2013-06-15 07:48:00,66.7,65.2,29.76,West,277,0.0,3.0,95,0.00,,SKC,0.00,188.00,VWS V14.00,2013-06-15 12:48:00,
2013-06-15 07:53:00,66.8,65.3,29.76,West,277,1.0,1.0,95,0.00,,SKC,0.00,195.00,VWS V14.00,2013-06-15 12:53:00,
2013-06-15 07:58:00,67.0,65.2,29.77,West,277,0.0,2.0,94,0.00,,SKC,0.00,188.00,VWS V14.00,2013-06-15 12:58:00,
2013-06-15 08:03:00,67.3,65.5,29.77,East,90,0.0,1.0,94,0.00,,SKC,0.00,221.00,VWS V14.00,2013-06-15 13:03:00,
2013-06-15 08:08:00,67.6,65.8,29.77,NE,42,0.0,2.0,94,0.00,,SKC,0.00,236.00,VWS V14.00,2013-06-15 13:08:00,
2013-06-15 08:13:00,67.8,66.0,29.77,NNE,30,0.0,2.0,94,0.00,,SKC,0.00,274.00,VWS V14.00,2013-06-15 13:13:00,
2013-06-15 08:18:00,68.2,66.1,29.78,West,272,1.0,3.0,93,0.00,,SKC,0.00,195.00,VWS V14.00,2013-06-15 13:18:00,
2013-06-15 08:23:00,68.4,66.0,29.78,West,272,0.0,2.0,92,0.00,,SKC,0.00,179.00,VWS V14.00,2013-06-15 13:23:00,
2013-06-15 08:28:00,68.6,66.2,29.79,WNW,294,0.0,3.0,92,0.00,,SKC,0.00,183.00,VWS V14.00,2013-06-15 13:28:00,
2013-06-15 08:33:00,68.8,66.1,29.79,NW,315,1.0,3.0,91,0.00,,SKC,0.00,181.00,VWS V14.00,2013-06-15 13:33:00,
2013-06-15 08:38:00,69.0,66.3,29.79,NE,34,0.0,1.0,91,0.00,,SKC,0.00,190.00,VWS V14.00,2013-06-15 13:38:00,
2013-06-15 08:43:00,69.1,66.4,29.79,NNW,342,0.0,3.0,91,0.00,,SKC,0.00,200.00,VWS V14.00,2013-06-15 13:43:00,
2013-06-15 08:48:00,69.2,66.5,29.79,NW,321,3.0,3.0,91,0.00,,SKC,0.00,188.00,VWS V14.00,2013-06-15 13:48:00,
2013-06-15 08:53:00,69.4,66.7,29.79,NW,321,0.0,3.0,91,0.00,,SKC,0.00,223.00,VWS V14.00,2013-06-15 13:53:00,
2013-06-15 08:58:00,69.5,66.4,29.79,NW,309,0.0,3.0,90,0.00,,SKC,0.00,243.00,VWS V14.00,2013-06-15 13:58:00,
2013-06-15 09:03:00,69.7,66.6,29.78,NNW,329,1.0,3.0,90,0.00,,SKC,0.00,274.00,VWS V14.00,2013-06-15 14:03:00,
2013-06-15 09:08:00,69.9,66.5,29.79,WNW,294,1.0,4.0,89,0.00,,SKC,0.00,346.00,VWS V14.00,2013-06-15 14:08:00,
2013-06-15 09:13:00,70.1,66.7,29.79,NW,323,1.0,4.0,89,0.00,,SKC,0.00,299.00,VWS V14.00,2013-06-15 14:13:00,
2013-06-15 09:18:00,70.3,66.9,29.78,ENE,76,0.0,2.0,89,0.00,,SKC,0.00,299.00,VWS V14.00,2013-06-15 14:18:00,
2013-06-15 09:23:00,70.6,66.9,29.78,West,281,0.0,4.0,88,0.00,,SKC,0.00,295.00,VWS V14.00,2013-06-15 14:23:00,
2013-06-15 09:28:00,70.9,67.2,29.79,NW,310,0.0,4.0,88,0.00,,SKC,0.00,443.00,VWS V14.00,2013-06-15 14:28:00,
2013-06-15 09:33:00,71.3,67.6,29.79,NW,321,0.0,4.0,88,0.00,,SKC,0.00,466.00,VWS V14.00,2013-06-15 14:33:00,
2013-06-15 09:38:00,71.7,67.6,29.79,NNE,17,1.0,4.0,87,0.00,,SKC,0.00,320.00,VWS V14.00,2013-06-15 14:38:00,
2013-06-15 09:43:00,72.1,67.7,29.79,West,271,2.0,7.0,86,0.00,,SKC,0.00,369.00,VWS V14.00,2013-06-15 14:43:00,
2013-06-15 09:48:00,72.2,67.1,29.80,NNW,338,1.0,6.0,84,0.00,,SKC,0.00,269.00,VWS V14.00,2013-06-15 14:48:00,
2013-06-15 09:53:00,72.2,67.1,29.81,South,190,2.0,4.0,84,0.00,,SKC,0.00,336.00,VWS V14.00,2013-06-15 14:53:00,
2013-06-15 09:58:00,72.1,66.7,29.81,North,350,1.0,6.0,83,0.00,,SKC,0.00,341.00,VWS V14.00,2013-06-15 14:58:00,
2013-06-15 10:03:00,72.0,65.9,29.81,East,84,2.0,6.0,81,0.00,,SKC,0.00,366.00,VWS V14.00,2013-06-15 15:03:00,
2013-06-15 10:08:00,72.0,65.1,29.81,West,268,3.0,4.0,79,0.00,,SKC,0.00,366.00,VWS V14.00,2013-06-15 15:08:00,
2013-06-15 10:13:00,71.9,62.8,29.81,NNE,23,4.0,6.0,73,0.00,,SKC,0.00,353.00,VWS V14.00,2013-06-15 15:13:00,
2013-06-15 10:18:00,71.9,63.2,29.81,NNW,330,4.0,7.0,74,0.00,,SKC,0.00,345.00,VWS V14.00,2013-06-15 15:18:00,
2013-06-15 10:23:00,71.9,63.2,29.81,WNW,292,0.0,5.0,74,0.00,,SKC,0.00,348.00,VWS V14.00,2013-06-15 15:23:00,
2013-06-15 10:28:00,72.0,62.1,29.81,WNW,296,4.0,5.0,71,0.00,,SKC,0.00,374.00,VWS V14.00,2013-06-15 15:28:00,
2013-06-15 10:33:00,72.0,62.1,29.81,NNE,28,2.0,9.0,71,0.00,,SKC,0.00,390.00,VWS V14.00,2013-06-15 15:33:00,
2013-06-15 10:38:00,72.1,62.2,29.81,NE,46,2.0,6.0,71,0.00,,SKC,0.00,396.00,VWS V14.00,2013-06-15 15:38:00,
2013-06-15 10:43:00,72.2,61.9,29.81,SW,225,0.0,5.0,70,0.00,,SKC,0.00,396.00,VWS V14.00,2013-06-15 15:43:00,
2013-06-15 10:48:00,72.4,62.5,29.81,WSW,248,0.0,3.0,71,0.00,,SKC,0.00,399.00,VWS V14.00,2013-06-15 15:48:00,
2013-06-15 10:53:00,72.6,61.4,29.80,North,5,1.0,7.0,68,0.00,,SKC,0.00,360.00,VWS V14.00,2013-06-15 15:53:00,
2013-06-15 10:58:00,72.7,62.4,29.80,NNE,23,1.0,5.0,70,0.00,,SKC,0.00,330.00,VWS V14.00,2013-06-15 15:58:00,
2013-06-15 11:03:00,72.6,61.4,29.80,NNE,15,0.0,10.0,68,0.00,,SKC,0.00,334.00,VWS V14.00,2013-06-15 16:03:00,
2013-06-15 11:08:00,72.7,61.5,29.80,North,355,4.0,4.0,68,0.00,,SKC,0.00,345.00,VWS V14.00,2013-06-15 16:08:00,
2013-06-15 11:13:00,72.8,61.2,29.80,South,189,0.0,4.0,67,0.00,,SKC,0.00,350.00,VWS V14.00,2013-06-15 16:13:00,
2013-06-15 11:18:00,72.8,60.8,29.80,NW,313,0.0,5.0,66,0.00,,SKC,0.00,346.00,VWS V14.00,2013-06-15 16:18:00,
2013-06-15 11:23:00,72.9,60.9,29.80,NNW,328,0.0,6.0,66,0.00,,SKC,0.00,378.00,VWS V14.00,2013-06-15 16:23:00,
2013-06-15 11:28:00,72.9,61.3,29.80,WNW,290,5.0,5.0,67,0.00,,SKC,0.00,385.00,VWS V14.00,2013-06-15 16:28:00,
2013-06-15 11:33:00,73.0,61.0,29.80,NNW,348,1.0,10.0,66,0.00,,SKC,0.00,417.00,VWS V14.00,2013-06-15 16:33:00,
2013-06-15 11:38:00,73.2,60.7,29.80,West,273,1.0,6.0,65,0.00,,SKC,0.00,438.00,VWS V14.00,2013-06-15 16:38:00,
2013-06-15 11:43:00,73.4,61.4,29.80,NE,38,2.0,3.0,66,0.00,,SKC,0.00,450.00,VWS V14.00,2013-06-15 16:43:00,
2013-06-15 11:48:00,73.6,61.5,29.80,SSE,158,0.0,5.0,66,0.00,,SKC,0.00,383.00,VWS V14.00,2013-06-15 16:48:00,
2013-06-15 11:53:00,73.8,62.2,29.80,NE,52,0.0,4.0,67,0.00,,SKC,0.00,299.00,VWS V14.00,2013-06-15 16:53:00,
2013-06-15 11:58:00,73.8,61.7,29.80,South,177,0.0,3.0,66,0.00,,SKC,0.00,234.00,VWS V14.00,2013-06-15 16:58:00,
2013-06-15 12:03:00,73.8,60.9,29.79,ENE,63,1.0,2.0,64,0.00,,SKC,0.00,176.00,VWS V14.00,2013-06-15 17:03:00,
2013-06-15 12:08:00,73.6,61.1,29.79,ENE,63,0.0,2.0,65,0.00,,SKC,0.00,132.00,VWS V14.00,2013-06-15 17:08:00,
2013-06-15 12:13:00,73.5,61.5,29.79,ENE,63,0.0,1.0,66,0.00,,SKC,0.00,104.00,VWS V14.00,2013-06-15 17:13:00,
2013-06-15 12:18:00,73.2,60.7,29.80,ENE,63,0.0,1.0,65,0.00,,SKC,0.00,111.00,VWS V14.00,2013-06-15 17:18:00,
2013-06-15 12:23:00,73.1,61.1,29.80,ENE,63,0.0,0.0,66,0.00,,SKC,0.00,128.00,VWS V14.00,2013-06-15 17:23:00,
2013-06-15 12:28:00,72.9,61.7,29.80,ENE,63,0.0,1.0,68,0.00,,SKC,0.00,146.00,VWS V14.00,2013-06-15 17:28:00,
2013-06-15 12:33:00,72.7,61.5,29.81,ENE,63,0.0,0.0,68,0.00,,SKC,0.00,160.00,VWS V14.00,2013-06-15 17:33:00,
2013-06-15 12:38:00,72.6,61.9,29.80,ENE,63,0.0,0.0,69,0.00,,SKC,0.00,172.00,VWS V14.00,2013-06-15 17:38:00,
2013-06-15 12:43:00,72.4,59.5,29.80,SW,236,0.0,1.0,64,0.00,,SKC,0.00,188.00,VWS V14.00,2013-06-15 17:43:00,
2013-06-15 12:48:00,72.3,61.6,29.80,SW,236,0.0,0.0,69,0.00,,SKC,0.00,202.00,VWS V14.00,2013-06-15 17:48:00,
2013-06-15 12:53:00,72.3,62.8,29.80,West,259,2.0,2.0,72,0.00,,SKC,0.00,213.00,VWS V14.00,2013-06-15 17:53:00,
2013-06-15 12:58:00,72.2,63.5,29.80,NW,304,0.0,2.0,74,0.00,,SKC,0.00,223.00,VWS V14.00,2013-06-15 17:58:00,
2013-06-15 13:03:00,72.2,62.7,29.79,NE,45,0.0,5.0,72,0.00,,SKC,0.00,237.00,VWS V14.00,2013-06-15 18:03:00,
2013-06-15 13:08:00,72.1,63.0,29.79,NNE,16,1.0,2.0,73,0.00,,SKC,0.00,211.00,VWS V14.00,2013-06-15 18:08:00,
2013-06-15 13:13:00,71.9,61.6,29.79,NNW,327,3.0,4.0,70,0.00,,SKC,0.00,220.00,VWS V14.00,2013-06-15 18:13:00,
2013-06-15 13:18:00,71.7,59.8,29.79,North,5,2.0,4.0,66,0.00,,SKC,0.00,294.00,VWS V14.00,2013-06-15 18:18:00,
2013-06-15 13:23:00,71.7,59.8,29.78,NE,51,1.0,4.0,66,0.00,,SKC,0.00,420.00,VWS V14.00,2013-06-15 18:23:00,
2013-06-15 13:28:00,71.9,61.2,29.79,NNW,337,1.0,5.0,69,0.00,,SKC,0.00,413.00,VWS V14.00,2013-06-15 18:28:00,
2013-06-15 13:33:00,72.1,59.7,29.79,West,269,0.0,3.0,65,0.00,,SKC,0.00,473.00,VWS V14.00,2013-06-15 18:33:00,
2013-06-15 13:38:00,72.6,60.6,29.80,NNW,335,2.0,5.0,66,0.00,,SKC,0.00,1032.00,VWS V14.00,2013-06-15 18:38:00,
2013-06-15 13:43:00,73.4,58.2,29.79,WNW,302,0.0,4.0,59,0.00,,SKC,0.00,926.00,VWS V14.00,2013-06-15 18:43:00,
2013-06-15 13:48:00,74.3,59.5,29.80,NW,306,0.0,5.0,60,0.00,,SKC,0.00,926.00,VWS V14.00,2013-06-15 18:48:00,
2013-06-15 13:53:00,75.0,58.3,29.80,SW,234,1.0,5.0,56,0.00,,SKC,0.00,645.00,VWS V14.00,2013-06-15 18:53:00,
2013-06-15 13:58:00,75.5,57.2,29.81,ENE,72,1.0,5.0,53,0.00,,SKC,0.00,656.00,VWS V14.00,2013-06-15 18:58:00,
2013-06-15 14:03:00,75.8,59.5,29.81,ESE,109,1.0,4.0,57,0.00,,SKC,0.00,823.00,VWS V14.00,2013-06-15 19:03:00,
2013-06-15 14:08:00,76.6,58.2,29.81,NW,323,0.0,4.0,53,0.00,,SKC,0.00,1048.00,VWS V14.00,2013-06-15 19:08:00,
2013-06-15 14:13:00,77.2,58.8,29.81,NW,309,3.0,5.0,53,0.00,,SKC,0.00,1042.00,VWS V14.00,2013-06-15 19:13:00,
2013-06-15 14:18:00,77.7,59.2,29.81,NNW,344,1.0,3.0,53,0.00,,SKC,0.00,803.00,VWS V14.00,2013-06-15 19:18:00,
2013-06-15 14:23:00,78.2,58.1,29.81,NW,316,2.0,3.0,50,0.00,,SKC,0.00,960.00,VWS V14.00,2013-06-15 19:23:00,
2013-06-15 14:28:00,78.5,58.9,29.82,WNW,296,1.0,5.0,51,0.00,,SKC,0.00,939.00,VWS V14.00,2013-06-15 19:28:00,
2013-06-15 14:33:00,79.1,57.2,29.81,WNW,297,0.0,3.0,47,0.00,,SKC,0.00,404.00,VWS V14.00,2013-06-15 19:33:00,
2013-06-15 14:38:00,79.4,57.4,29.81,NW,309,0.0,2.0,47,0.00,,SKC,0.00,932.00,VWS V14.00,2013-06-15 19:38:00,
2013-06-15 14:43:00,79.7,57.1,29.81,NW,312,1.0,4.0,46,0.00,,SKC,0.00,914.00,VWS V14.00,2013-06-15 19:43:00,
2013-06-15 14:48:00,79.8,57.2,29.81,NNW,338,1.0,4.0,46,0.00,,SKC,0.00,907.00,VWS V14.00,2013-06-15 19:48:00,
2013-06-15 14:53:00,80.1,56.9,29.81,NW,312,2.0,3.0,45,0.00,,SKC,0.00,900.00,VWS V14.00,2013-06-15 19:53:00,
2013-06-15 14:58:00,80.2,57.6,29.81,North,5,1.0,5.0,46,0.00,,SKC,0.00,891.00,VWS V14.00,2013-06-15 19:58:00,
2013-06-15 15:03:00,80.4,57.8,29.81,North,350,3.0,4.0,46,0.00,,SKC,0.00,884.00,VWS V14.00,2013-06-15 20:03:00,
2013-06-15 15:08:00,80.5,59.0,29.81,NNW,334,2.0,7.0,48,0.00,,SKC,0.00,881.00,VWS V14.00,2013-06-15 20:08:00,
2013-06-15 15:13:00,80.7,60.9,29.81,NE,56,0.0,4.0,51,0.00,,SKC,0.00,874.00,VWS V14.00,2013-06-15 20:13:00,
2013-06-15 15:18:00,80.8,58.7,29.81,WNW,303,2.0,6.0,47,0.00,,SKC,0.00,867.00,VWS V14.00,2013-06-15 20:18:00,
2013-06-15 15:23:00,80.8,56.9,29.80,West,280,0.0,4.0,44,0.00,,SKC,0.00,863.00,VWS V14.00,2013-06-15 20:23:00,
2013-06-15 15:28:00,81.0,56.4,29.80,NW,314,1.0,3.0,43,0.00,,SKC,0.00,861.00,VWS V14.00,2013-06-15 20:28:00,
2013-06-15 15:33:00,81.2,56.6,29.80,NW,317,1.0,3.0,43,0.00,,SKC,0.00,851.00,VWS V14.00,2013-06-15 20:33:00,
2013-06-15 15:38:00,81.5,55.5,29.80,NW,320,1.0,3.0,41,0.00,,SKC,0.00,837.00,VWS V14.00,2013-06-15 20:38:00,
2013-06-15 15:43:00,81.5,54.9,29.79,NW,309,0.0,4.0,40,0.00,,SKC,0.00,830.00,VWS V14.00,2013-06-15 20:43:00,
2013-06-15 15:48:00,81.7,58.9,29.79,NW,323,1.0,3.0,46,0.00,,SKC,0.00,823.00,VWS V14.00,2013-06-15 20:48:00,
2013-06-15 15:53:00,81.7,55.0,29.79,WNW,302,3.0,4.0,40,0.00,,SKC,0.00,812.00,VWS V14.00,2013-06-15 20:53:00,
2013-06-15 15:58:00,81.7,54.4,29.79,NW,306,2.0,4.0,39,0.00,,SKC,0.00,802.00,VWS V14.00,2013-06-15 20:58:00,
2013-06-15 16:03:00,81.7,57.7,29.79,East,88,0.0,5.0,44,0.00,,SKC,0.00,788.00,VWS V14.00,2013-06-15 21:03:00,
2013-06-15 16:08:00,81.7,57.7,29.79,NNW,335,0.0,4.0,44,0.00,,SKC,0.00,782.00,VWS V14.00,2013-06-15 21:08:00,
2013-06-15 16:13:00,81.7,55.7,29.79,WNW,292,0.0,4.0,41,0.00,,SKC,0.00,751.00,VWS V14.00,2013-06-15 21:13:00,
2013-06-15 16:18:00,81.8,57.1,29.78,ESE,106,3.0,4.0,43,0.00,,SKC,0.00,756.00,VWS V14.00,2013-06-15 21:18:00,
2013-06-15 16:23:00,81.7,54.4,29.78,WSW,249,2.0,3.0,39,0.00,,SKC,0.00,747.00,VWS V14.00,2013-06-15 21:23:00,
2013-06-15 16:28:00,81.8,54.5,29.78,WNW,294,1.0,3.0,39,0.00,,SKC,0.00,731.00,VWS V14.00,2013-06-15 21:28:00,
2013-06-15 16:33:00,81.8,54.5,29.78,West,261,5.0,5.0,39,0.00,,SKC,0.00,721.00,VWS V14.00,2013-06-15 21:33:00,
2013-06-15 16:38:00,81.7,53.7,29.78,North,11,2.0,5.0,38,0.00,,SKC,0.00,708.00,VWS V14.00,2013-06-15 21:38:00,
2013-06-15 16:43:00,81.6,55.6,29.78,WNW,283,2.0,2.0,41,0.00,,SKC,0.00,696.00,VWS V14.00,2013-06-15 21:43:00,
2013-06-15 16:48:00,81.9,55.9,29.78,WNW,292,2.0,4.0,41,0.00,,SKC,0.00,684.00,VWS V14.00,2013-06-15 21:48:00,
2013-06-15 16:53:00,82.0,54.6,29.78,West,264,3.0,4.0,39,0.00,,SKC,0.00,670.00,VWS V14.00,2013-06-15 21:53:00,
2013-06-15 16:58:00,82.2,56.8,29.78,NW,325,2.0,4.0,42,0.00,,SKC,0.00,657.00,VWS V14.00,2013-06-15 21:58:00,
2013-06-15 17:03:00,82.2,54.8,29.77,NW,310,4.0,4.0,39,0.00,,SKC,0.00,649.00,VWS V14.00,2013-06-15 22:03:00,
2013-06-15 17:08:00,82.0,54.6,29.77,NNW,347,3.0,5.0,39,0.00,,SKC,0.00,631.00,VWS V14.00,2013-06-15 22:08:00,
2013-06-15 17:13:00,81.7,53.7,29.77,NNE,30,3.0,6.0,38,0.00,,SKC,0.00,619.00,VWS V14.00,2013-06-15 22:13:00,
2013-06-15 17:18:00,81.5,55.5,29.77,NNW,334,1.0,6.0,41,0.00,,SKC,0.00,610.00,VWS V14.00,2013-06-15 22:18:00,
2013-06-15 17:23:00,81.4,55.5,29.77,NNE,14,2.0,5.0,41,0.00,,SKC,0.00,591.00,VWS V14.00,2013-06-15 22:23:00,
2013-06-15 17:28:00,81.5,57.5,29.77,West,271,1.0,6.0,44,0.00,,SKC,0.00,580.00,VWS V14.00,2013-06-15 22:28:00,
2013-06-15 17:33:00,81.6,56.3,29.77,West,276,2.0,3.0,42,0.00,,SKC,0.00,564.00,VWS V14.00,2013-06-15 22:33:00,
2013-06-15 17:38:00,81.5,54.9,29.77,SW,234,2.0,5.0,40,0.00,,SKC,0.00,550.00,VWS V14.00,2013-06-15 22:38:00,
2013-06-15 17:43:00,81.4,54.8,29.77,NW,326,1.0,5.0,40,0.00,,SKC,0.00,540.00,VWS V14.00,2013-06-15 22:43:00,
2013-06-15 17:48:00,81.3,56.7,29.76,North,360,0.0,4.0,43,0.00,,SKC,0.00,520.00,VWS V14.00,2013-06-15 22:48:00,
2013-06-15 17:53:00,81.2,58.5,29.76,NNE,13,0.0,2.0,46,0.00,,SKC,0.00,506.00,VWS V14.00,2013-06-15 22:53:00,
2013-06-15 17:58:00,81.3,56.7,29.76,NNE,13,0.0,2.0,43,0.00,,SKC,0.00,494.00,VWS V14.00,2013-06-15 22:58:00,
2013-06-15 18:03:00,81.4,54.1,29.76,NNW,331,1.0,2.0,39,0.00,,SKC,0.00,478.00,VWS V14.00,2013-06-15 23:03:00,
2013-06-15 18:08:00,81.5,55.5,29.76,WNW,292,1.0,5.0,41,0.00,,SKC,0.00,468.00,VWS V14.00,2013-06-15 23:08:00,
2013-06-15 18:13:00,81.4,56.1,29.75,West,280,1.0,3.0,42,0.00,,SKC,0.00,445.00,VWS V14.00,2013-06-15 23:13:00,
2013-06-15 18:18:00,81.4,56.8,29.76,WNW,292,0.0,3.0,43,0.00,,SKC,0.00,431.00,VWS V14.00,2013-06-15 23:18:00,
2013-06-15 18:23:00,81.4,58.7,29.75,WNW,292,1.0,2.0,46,0.00,,SKC,0.00,417.00,VWS V14.00,2013-06-15 23:23:00,
2013-06-15 18:28:00,81.4,54.1,29.76,NNW,344,2.0,3.0,39,0.00,,SKC,0.00,401.00,VWS V14.00,2013-06-15 23:28:00,
2013-06-15 18:33:00,81.4,57.4,29.75,NNW,344,0.0,2.0,44,0.00,,SKC,0.00,385.00,VWS V14.00,2013-06-15 23:33:00,
2013-06-15 18:38:00,81.3,59.2,29.76,NW,309,0.0,2.0,47,0.00,,SKC,0.00,371.00,VWS V14.00,2013-06-15 23:38:00,
2013-06-15 18:43:00,81.3,59.8,29.76,NW,309,0.0,2.0,48,0.00,,SKC,0.00,355.00,VWS V14.00,2013-06-15 23:43:00,
2013-06-15 18:48:00,81.4,58.7,29.76,WNW,288,0.0,3.0,46,0.00,,SKC,0.00,341.00,VWS V14.00,2013-06-15 23:48:00,
2013-06-15 18:53:00,81.4,56.8,29.75,WNW,288,0.0,2.0,43,0.00,,SKC,0.00,330.00,VWS V14.00,2013-06-15 23:53:00,
2013-06-15 18:58:00,81.4,58.0,29.76,WNW,288,0.0,2.0,45,0.00,,SKC,0.00,313.00,VWS V14.00,2013-06-15 23:58:00,
2013-06-15 19:03:00,81.4,58.0,29.76,WNW,288,0.0,1.0,45,0.00,,SKC,0.00,299.00,VWS V14.00,2013-06-16 00:03:00,
2013-06-15 19:08:00,81.4,56.1,29.76,NNE,19,3.0,3.0,42,0.00,,SKC,0.00,287.00,VWS V14.00,2013-06-16 00:08:00,
2013-06-15 19:13:00,81.4,59.8,29.76,NNE,19,0.0,3.0,48,0.00,,SKC,0.00,267.00,VWS V14.00,2013-06-16 00:13:00,
2013-06-15 19:18:00,81.2,59.1,29.76,NW,325,1.0,4.0,47,0.00,,SKC,0.00,255.00,VWS V14.00,2013-06-16 00:18:00,
2013-06-15 19:23:00,81.1,57.8,29.76,NW,304,0.0,3.0,45,0.00,,SKC,0.00,237.00,VWS V14.00,2013-06-16 00:23:00,
2013-06-15 19:28:00,80.8,57.5,29.76,WNW,294,0.0,3.0,45,0.00,,SKC,0.00,223.00,VWS V14.00,2013-06-16 00:28:00,
2013-06-15 19:33:00,80.5,57.2,29.76,WNW,294,1.0,1.0,45,0.00,,SKC,0.00,204.00,VWS V14.00,2013-06-16 00:33:00,
2013-06-15 19:38:00,80.1,58.1,29.76,WNW,294,0.0,2.0,47,0.00,,SKC,0.00,185.00,VWS V14.00,2013-06-16 00:38:00,
2013-06-15 19:43:00,79.9,58.5,29.76,WNW,294,0.0,0.0,48,0.00,,SKC,0.00,167.00,VWS V14.00,2013-06-16 00:43:00,
2013-06-15 19:48:00,79.7,57.1,29.76,WNW,294,0.0,0.0,46,0.00,,SKC,0.00,149.00,VWS V14.00,2013-06-16 00:48:00,
2013-06-15 19:53:00,79.6,56.4,29.76,WNW,294,0.0,1.0,45,0.00,,SKC,0.00,134.00,VWS V14.00,2013-06-16 00:53:00,
2013-06-15 19:58:00,79.4,56.8,29.76,WNW,294,0.0,2.0,46,0.00,,SKC,0.00,118.00,VWS V14.00,2013-06-16 00:58:00,
2013-06-15 20:03:00,79.1,56.0,29.76,NNW,338,0.0,0.0,45,0.00,,SKC,0.00,33.00,VWS V14.00,2013-06-16 01:03:00,
2013-06-15 20:08:00,78.7,55.0,29.76,NNW,333,0.0,1.0,44,0.00,,SKC,0.00,33.00,VWS V14.00,2013-06-16 01:08:00,
2013-06-15 20:13:00,78.4,55.3,29.76,NNW,333,0.0,0.0,45,0.00,,SKC,0.00,76.00,VWS V14.00,2013-06-16 01:13:00,
2013-06-15 20:18:00,77.8,55.4,29.76,NNW,333,0.0,0.0,46,0.00,,SKC,0.00,62.00,VWS V14.00,2013-06-16 01:18:00,
2013-06-15 20:23:00,77.4,54.4,29.76,NNW,333,0.0,0.0,45,0.00,,SKC,0.00,42.00,VWS V14.00,2013-06-16 01:23:00,
2013-06-15 20:28:00,77.0,54.1,29.76,NNW,333,0.0,0.0,45,0.00,,SKC,0.00,40.00,VWS V14.00,2013-06-16 01:28:00,
2013-06-15 20:33:00,76.6,54.3,29.76,NNW,333,0.0,0.0,46,0.00,,SKC,0.00,19.00,VWS V14.00,2013-06-16 01:33:00,
2013-06-15 20:38:00,76.1,53.8,29.76,NNW,333,0.0,0.0,46,0.00,,SKC,0.00,18.00,VWS V14.00,2013-06-16 01:38:00,
2013-06-15 20:43:00,75.7,55.2,29.76,NNW,333,0.0,0.0,49,0.00,,SKC,0.00,16.00,VWS V14.00,2013-06-16 01:43:00,
2013-06-15 20:48:00,74.9,57.2,29.76,NNW,333,0.0,0.0,54,0.00,,SKC,0.00,14.00,VWS V14.00,2013-06-16 01:48:00,
2013-06-15 20:53:00,74.2,57.0,29.77,NNW,333,0.0,0.0,55,0.00,,SKC,0.00,12.00,VWS V14.00,2013-06-16 01:53:00,
2013-06-15 20:58:00,73.5,56.4,29.77,NNW,333,0.0,0.0,55,0.00,,SKC,0.00,9.00,VWS V14.00,2013-06-16 01:58:00,
2013-06-15 21:03:00,72.9,55.8,29.77,NNW,333,0.0,0.0,55,0.00,,SKC,0.00,7.00,VWS V14.00,2013-06-16 02:03:00,
2013-06-15 21:08:00,72.4,55.3,29.77,NNW,333,0.0,0.0,55,0.00,,SKC,0.00,5.00,VWS V14.00,2013-06-16 02:08:00,
2013-06-15 21:13:00,71.5,55.5,29.77,NNW,333,0.0,1.0,57,0.00,,SKC,0.00,0.00,VWS V14.00,2013-06-16 02:13:00,
2013-06-15 21:18:00,70.7,54.2,29.77,NNW,333,0.0,0.0,56,0.00,,SKC,0.00,0.00,VWS V14.00,2013-06-16 02:18:00,
2013-06-15 21:23:00,70.1,53.2,29.77,South,182,0.0,1.0,55,0.00,,SKC,0.00,0.00,VWS V14.00,2013-06-16 02:23:00,
2013-06-15 21:28:00,69.5,53.6,29.77,South,182,0.0,0.0,57,0.00,,SKC,0.00,0.00,VWS V14.00,2013-06-16 02:28:00,
2013-06-15 21:33:00,69.1,53.2,29.78,South,182,0.0,0.0,57,0.00,,SKC,0.00,0.00,VWS V14.00,2013-06-16 02:33:00,
2013-06-15 21:38:00,68.7,52.9,29.78,South,182,0.0,0.0,57,0.00,,SKC,0.00,0.00,VWS V14.00,2013-06-16 02:38:00,
2013-06-15 21:43:00,68.3,53.0,29.78,South,182,0.0,0.0,58,0.00,,SKC,0.00,0.00,VWS V14.00,2013-06-16 02:43:00,
2013-06-15 21:48:00,67.7,53.3,29.78,South,182,0.0,0.0,60,0.00,,SKC,0.00,0.00,VWS V14.00,2013-06-16 02:48:00,
2013-06-15 21:53:00,67.1,53.2,29.78,South,182,0.0,0.0,61,0.00,,SKC,0.00,0.00,VWS V14.00,2013-06-16 02:53:00,
2013-06-15 21:58:00,66.5,52.7,29.79,South,182,0.0,0.0,61,0.00,,SKC,0.00,0.00,VWS V14.00,2013-06-16 02:58:00,
2013-06-15 22:03:00,66.0,52.6,29.78,South,182,0.0,0.0,62,0.00,,SKC,0.00,0.00,VWS V14.00,2013-06-16 03:03:00,
2013-06-15 22:08:00,65.4,52.5,29.79,South,182,0.0,0.0,63,0.00,,SKC,0.00,0.00,VWS V14.00,2013-06-16 03:08:00,
2013-06-15 22:13:00,64.7,52.3,29.79,South,182,0.0,0.0,64,0.00,,SKC,0.00,0.00,VWS V14.00,2013-06-16 03:13:00,
2013-06-15 22:18:00,64.3,52.3,29.79,South,182,0.0,0.0,65,0.00,,SKC,0.00,0.00,VWS V14.00,2013-06-16 03:18:00,
2013-06-15 22:23:00,63.8,51.0,29.79,South,182,0.0,0.0,63,0.00,,SKC,0.00,0.00,VWS V14.00,2013-06-16 03:23:00,
2013-06-15 22:28:00,63.5,51.5,29.79,South,182,0.0,0.0,65,0.00,,SKC,0.00,0.00,VWS V14.00,2013-06-16 03:28:00,
2013-06-15 22:33:00,63.2,51.7,29.79,South,182,0.0,0.0,66,0.00,,SKC,0.00,0.00,VWS V14.00,2013-06-16 03:33:00,
2013-06-15 22:39:00,62.9,53.4,29.80,South,182,0.0,0.0,71,0.00,,SKC,0.00,0.00,VWS V14.00,2013-06-16 03:39:00,
2013-06-15 22:44:00,62.9,54.1,29.80,South,182,0.0,0.0,73,0.00,,SKC,0.00,0.00,VWS V14.00,2013-06-16 03:44:00,
2013-06-15 22:49:00,62.8,54.8,29.80,South,182,0.0,0.0,75,0.00,,SKC,0.00,0.00,VWS V14.00,2013-06-16 03:49:00,
2013-06-15 22:54:00,62.4,53.6,29.80,South,182,0.0,0.0,73,0.00,,SKC,0.00,0.00,VWS V14.00,2013-06-16 03:54:00,
2013-06-15 22:59:00,62.2,53.5,29.80,South,182,0.0,0.0,73,0.00,,SKC,0.00,0.00,VWS V14.00,2013-06-16 03:59:00,
2013-06-15 23:01:00,62.1,53.3,29.80,South,182,0.0,0.0,73,0.00,,SKC,0.00,0.00,VWS V14.00,2013-06-16 04:01:00,
2013-06-15 23:03:00,62.1,53.3,29.80,South,182,0.0,0.0,73,0.00,,SKC,0.00,0.00,VWS V14.00,2013-06-16 04:03:00,
2013-06-15 23:04:00,62.0,53.6,29.80,South,182,0.0,0.0,74,0.00,,SKC,0.00,0.00,VWS V14.00,2013-06-16 04:04:00,
2013-06-15 23:08:00,61.8,53.1,29.80,South,182,0.0,0.0,73,0.00,,SKC,0.00,0.00,VWS V14.00,2013-06-16 04:08:00,
2013-06-15 23:13:00,61.6,53.2,29.80,South,182,0.0,0.0,74,0.00,,SKC,0.00,0.00,VWS V14.00,2013-06-16 04:13:00,
2013-06-15 23:18:00,61.5,52.4,29.80,South,182,0.0,0.0,72,0.00,,SKC,0.00,0.00,VWS V14.00,2013-06-16 04:18:00,
2013-06-15 23:23:00,61.4,52.3,29.80,South,182,0.0,0.0,72,0.00,,SKC,0.00,0.00,VWS V14.00,2013-06-16 04:23:00,
2013-06-15 23:28:00,61.2,51.3,29.80,South,182,0.0,0.0,70,0.00,,SKC,0.00,0.00,VWS V14.00,2013-06-16 04:28:00,
2013-06-15 23:33:00,61.2,51.7,29.79,South,182,0.0,0.0,71,0.00,,SKC,0.00,0.00,VWS V14.00,2013-06-16 04:33:00,
2013-06-15 23:38:00,61.1,51.6,29.80,South,182,0.0,0.0,71,0.00,,SKC,0.00,0.00,VWS V14.00,2013-06-16 04:38:00,
2013-06-15 23:43:00,61.1,51.6,29.80,South,182,0.0,0.0,71,0.00,,SKC,0.00,0.00,VWS V14.00,2013-06-16 04:43:00,
2013-06-15 23:48:00,61.1,51.6,29.80,South,182,0.0,0.0,71,0.00,,SKC,0.00,0.00,VWS V14.00,2013-06-16 04:48:00,
2013-06-15 23:53:00,61.2,51.3,29.80,South,182,0.0,0.0,70,0.00,,SKC,0.00,0.00,VWS V14.00,2013-06-16 04:53:00,
2013-06-15 23:58:00,61.2,51.3,29.80,South,182,0.0,0.0,70,0.00,,SKC,0.00,0.00,VWS V14.00,2013-06-16 04:58:00,